Home > Weather > Austin > Past weeks

Flag for USA Weather for the Past 2 Weeks in Austin, Texas, USA

Now
74 °F

Clear.


Feels Like: 75 °F
Forecast: 65 / 77 °F
Wind: 3 mph from Northeast

Location: Camp Mabry / Austin City

Current Time: Apr 30, 2016 at 11:14:52 PM

Latest Report: Apr 30, 2016 at 9:51 PM


Visibility: 10 mi

Pressure: 29.77 "Hg

Humidity: 74%

Dew Point: 65 °F

Location of AustinLocation

Historic Weather in Austin — Graph

°F

Austin Temperature Yesterday

Maximum temperature yesterday: 84 °F (at 4:51 PM)
Minimum temperature yesterday: 75 °F (at 1:04 AM)
Average temperature yesterday: 79 °F

High & Low Weather Summary for the Past Weeks

 TemperatureHumidityPressure
High89 °F (Apr 27, 2:51 PM)100% (Apr 19, 12:58 AM)30.13 "Hg (Apr 19, 12:58 AM)
Low57 °F (Apr 23, 6:51 AM)15% (Apr 27, 2:51 PM)29.54 "Hg (Apr 29, 6:51 PM)
Average72 °F78%29.86 "Hg
* Reported Apr 15 8:51 PM — Apr 30 8:51 PM, Austin, Weather by CustomWeather, © 2016

Note: Actual official high and low records may vary slightly from our data, if they occured in-between our weather recording intervals... More about our weather records

Advertising

Austin Weather History for the Previous 24 Hours

Scroll right to see more
 ConditionsComfort  
Time TempWeatherWind HumidityBarometerVisibility
8:51 PM
Sat, Apr 30
76 °FSunny.3 mph69%29.75 "Hg10 mi
7:51 PM79 °FSunny.No wind60%29.73 "Hg10 mi
6:51 PM82 °FSunny.6 mph53%29.69 "Hg10 mi
5:51 PM83 °FSunny.5 mph53%29.68 "Hg10 mi
4:51 PM84 °FSunny.No wind51%29.68 "Hg10 mi
3:51 PM83 °FSunny.3 mph51%29.70 "Hg10 mi
2:51 PM81 °FSunny.6 mph58%29.72 "Hg10 mi
1:51 PM79 °FSunny.3 mph62%29.74 "Hg10 mi
12:51 PM78 °FPassing clouds.5 mph64%29.75 "Hg10 mi
11:51 AM75 °FPartly sunny.8 mph66%29.76 "Hg10 mi
10:51 AM75 °FPassing clouds.8 mph66%29.75 "Hg10 mi
9:51 AM72 °FSunny.9 mph71%29.74 "Hg10 mi
8:51 AM70 °FScattered clouds.3 mph84%29.72 "Hg10 mi
7:51 AM67 °FSunny.5 mph90%29.68 "Hg10 mi
6:51 AM66 °FClear.5 mph93%29.65 "Hg10 mi
6:00 AM68 °FPassing clouds.5 mph90%29.66 "Hg10 mi
5:02 AM71 °FStrong thunderstorms. Fog.8 mph93%29.70 "Hg1 mi
3:51 AM74 °FClear.No wind91%29.56 "Hg7 mi
2:51 AM75 °FPassing clouds.No wind88%29.57 "Hg7 mi
1:51 AM74 °FPassing clouds.3 mph94%29.60 "Hg7 mi
12:51 AM76 °FFog.No wind91%29.61 "Hg4 mi
11:51 PM
Fri, Apr 29
77 °FFog.3 mph90%29.61 "Hg5 mi
Weather by CustomWeather, © 2016

See weather overviewHow to use our weather pages